Weather observations for the past three days for
Ann Arbor, Ann Arbor Municipal Airport
Imperial (Metric)
Date Time (edt) Wind (mph) Vis. (mi.) Weather Sky Cond. Temperature (ºF) Relative Humidity Wind Chill (°F) Heat Index (°F) Pressure Precipitation (in)
Air Dwpt 6 hour altimeter (in) sea level (mb) 1 hr 3 hr 6 hr
Max. Min.
12 20:53 SE 5 10.00 Fair CLR 75 66 74% 76 30.13 1019.6
12 19:53 S 5 10.00 Fair CLR 78.1 66 82.9 78.1 67% 80 30.12 1019.4
12 18:53 SE 5 10.00 Fair CLR 81 66.9 62% 83 30.11 1019.0
12 17:53 S 3 10.00 Overcast OVC039 81 66.9 62% 83 30.11 1019.0
12 16:53 Vrbl 3 10.00 A Few Clouds FEW042 82 64.9 56% 84 30.11 1019.0
12 15:53 Vrbl 6 10.00 Fair CLR 82 66 58% 84 30.12 1019.4
12 14:53 Vrbl 6 10.00 Fair CLR 80.1 64.9 60% 82 30.14 1020.1
12 13:53 E 7 10.00 Fair CLR 80.1 66.9 80.1 68 64% 82 30.14 1020.3
12 12:53 E 6 10.00 Partly Cloudy SCT110 78.1 66 67% 80 30.16 1020.7
12 11:53 SE 8 10.00 A Few Clouds FEW110 75.9 66 72% 77 30.15 1020.6
12 10:53 Vrbl 3 10.00 Mostly Cloudy SCT055 BKN110 73 66 79% 30.16 1020.9
12 09:53 Calm 8.00 Mostly Cloudy FEW030 SCT085 BKN110 71.1 68 90% 30.17 1021.0
12 08:53 E 3 7.00 Light Rain OVC100 69.1 64.9 87% 30.15 1020.4
12 07:53 Calm 8.00 Light Rain FEW060 BKN095 BKN110 68 64.9 68 64 90% 30.14 1020.1
12 06:53 Calm 9.00 Mostly Cloudy FEW048 BKN110 66.9 64 91% 30.13 1019.6
12 05:53 N 3 7.00 Overcast OVC110 66.9 64 91% 30.11 1019.0
12 04:53 NE 3 9.00 Overcast OVC110 66.9 64 91% 30.1 1018.7
12 03:53 Calm 8.00 Mostly Cloudy BKN110 66.9 64 91% 30.1 1018.8
12 02:53 Calm 8.00 Overcast OVC120 64.9 64 97% 30.11 1018.9
12 01:53 Calm 8.00 Partly Cloudy SCT048 64 64 79 64 100% 30.11 1019.1
12 00:53 Calm 10.00 Fair CLR 66 64 93% 30.11 1019.2
11 23:53 Calm 10.00 Fair CLR 69.1 64.9 87% 30.1 1018.7
11 22:53 Calm 10.00 Partly Cloudy SCT050 70 64.9 84% 30.1 1018.6
11 21:53 E 3 10.00 Fair CLR 73 64 74% 30.09 1018.4
11 20:53 E 6 10.00 A Few Clouds FEW048 75.9 63 64% 78 30.08 1018.1
11 19:53 NE 3 10.00 Fair CLR 79 60.1 84 79 52% 80 30.07 1017.8
11 18:53 E 3 10.00 Fair CLR 81 59 47% 81 30.06 1017.5
11 17:53 SE 8 10.00 Mostly Cloudy BKN055 81 61 51% 82 30.06 1017.3
11 16:53 NE 6 10.00 Mostly Cloudy BKN050 82.9 62.1 49% 84 30.06 1017.5
11 15:53 Calm 10.00 Fair CLR 79 60.1 52% 80 30.06 1017.5
11 14:53 Calm 10.00 Mostly Cloudy SCT047 BKN055 82 61 49% 83 30.07 1017.8
11 13:53 Vrbl 6 10.00 A Few Clouds FEW041 81 63 81 66 54% 82 30.07 1017.9
11 12:53 N 8 10.00 Partly Cloudy SCT038 80.1 64 58% 82 30.08 1018.2
11 11:53 Vrbl 6 10.00 A Few Clouds FEW036 79 64 60% 81 30.08 1018.0
11 10:53 Vrbl 5 10.00 Fair CLR 77 64 64% 79 30.07 1017.7
11 09:53 N 3 10.00 Fair CLR 73.9 62.1 67% 30.06 1017.6
11 08:53 Calm 9.00 Fair CLR 69.1 64 84% 30.06 1017.4
11 07:53 NW 6 7.00 Mostly Cloudy BKN006 66 63 66 63 90% 30.04 1017.1
11 06:53 NW 3 6.00 Fog/Mist OVC005 64 63 96% 30.03 1016.4
11 05:53 NW 7 7.00 Overcast OVC004 64 63 96% 30.01 1015.9
11 04:53 NW 6 9.00 Fair CLR 63 62.1 97% 29.99 1015.2
11 03:53 NW 5 10.00 Fair CLR 63 62.1 97% 29.98 1014.9
11 02:53 NW 7 10.00 Fair CLR 64 61 90% 29.97 1014.4
11 01:53 NW 7 10.00 A Few Clouds FEW044 63 61 66.9 63 93% 29.96 1014.3
11 00:53 W 6 10.00 Fair CLR 63 60.1 90% 29.95 1013.9
10 23:53 W 9 10.00 Fair CLR 63 60.1 90% 29.94 1013.8
10 22:53 W 8 10.00 Fair CLR 64 60.1 87% 29.92 1013.1
10 21:53 NW 8 10.00 Fair CLR 66 60.1 81% 29.9 1012.0
10 20:53 NW 10 10.00 Mostly Cloudy FEW043 BKN050 BKN060 66 61 84% 29.87 1011.2
10 19:53 NW 9 G 23 10.00 Light Rain BKN023 OVC029 66.9 62.1 69.1 64.9 84% 29.87 1010.9
10 18:53 NW 12 G 23 10.00 Light Rain BKN028 BKN034 OVC085 68 62.1 81% 29.83 1009.8
10 17:53 N 15 G 32 10.00 Overcast BKN022 OVC029 68 61 78% 29.8 1008.8
10 16:53 N 16 G 30 10.00 Overcast BKN020 OVC025 68 61 78% 29.76 1007.4
10 15:53 N 18 G 35 10.00 Overcast OVC017 66 61 84% 29.73 1006.5
10 14:53 N 15 G 29 10.00 Overcast OVC015 66 61 84% 29.7 1005.3
10 13:53 N 15 G 26 10.00 Light Rain OVC013 64.9 62.1 71.1 64 90% 29.68 1004.7 0.04 1.24
10 12:53 N 15 G 31 5.00 Light Rain Fog/Mist BKN009 BKN015 OVC027 64 61 90% 29.65 1003.8 0.01
10 11:53 N 18 G 25 5.00 Light Rain Fog/Mist BKN009 BKN015 OVC027 64.9 63 93% 29.64 1003.2 0.24
10 10:53 N 16 G 24 0.50 Heavy Rain Fog SCT007 BKN012 OVC019 64 63 96% 29.62 1002.7 0.48 0.95
10 09:53 NE 16 G 22 5.00 Light Rain Fog/Mist OVC006 70 68 93% 29.6 1001.9 0.17
10 08:53 E 10 2.00 Rain Fog/Mist BKN005 OVC013 69.1 68 96% 29.59 1001.4 0.3
10 07:53 NE 10 7.00 Overcast OVC006 68 66.9 69.1 66.9 96% 29.6 1001.7 0.01 0.9
10 06:53 NE 12 G 21 10.00 Light Rain OVC009 68 66 93% 29.62 1002.3 0.01
10 05:53 NE 15 G 24 10.00 Overcast BKN007 OVC017 68 66 93% 29.64 1003.1
10 04:53 NE 9 G 21 4.00 Rain Fog/Mist SCT008 BKN013 OVC027 68 66 93% 29.65 1003.4 0.2 0.88
10 03:53 NE 14 G 24 1.50 Heavy Rain Fog/Mist SCT006 BKN011 OVC019 68 66.9 96% 29.67 1004.1 0.52
10 02:53 NE 12 5.00 Light Rain Fog/Mist BKN006 BKN010 OVC025 68 66.9 96% 29.72 1005.8 0.16
10 01:53 NE 8 4.00 Rain Fog/Mist FEW015 BKN042 OVC050 69.1 66.9 75.9 69.1 93% 29.77 1007.3 0.17 0.44
10 00:53 NE 9 2.50 Heavy Rain Fog/Mist FEW032 OVC060 69.1 66.9 93% 29.79 1008.1 0.13
09 23:53 NE 7 10.00 Overcast OVC070 71.1 68 90% 29.81 1008.8 0.1
09 22:53 N 7 5.00 Light Rain Fog/Mist BKN075 OVC090 72 70 94% 29.85 1010.0 0.03 0.04
09 21:53 NE 5 5.00 Fog/Mist SCT095 BKN120 73 71.1 94% 29.86 1010.4 0.01
Date Time (edt) Wind (mph) Vis. (mi.) Weather Sky Cond. Air Dwpt Max. Min. Relative Humidity Wind Chill (°F) Heat Index (°F) altimeter (in) sea level (mb) 1 hr 3 hr 6 hr
6 hour
Temperature (ºF) Pressure Precipitation (in)